| time (UTC) | temp F | wind direction | speed knots | gust knots | rain 1hr in | rain 24hr in | rain mn in | humidity % | barometer mb |
| 20260906072608 | 80 | 25 | 5.2 | 9.6 | 0.00 | 0.00 | 0.00 | 53 | 1015.8 |
| 20260906072136 | 80 | 357 | 4.3 | 8.7 | 0.00 | 0.00 | 0.00 | 53 | 1015.8 |
| 20260906071122 | 80 | 1 | 4.3 | 9.6 | 0.00 | 0.00 | 0.00 | 55 | 1015.7 |
| 20260906065954 | 80 | 337 | 3.5 | 8.7 | 0.00 | 0.00 | 0.00 | 57 | 1015.7 |
| 20260906065626 | 80 | 354 | 3.5 | 9.6 | 0.00 | 0.00 | 0.00 | 56 | 1015.6 |
| 20260906064520 | 79 | 7 | 3.5 | 9.6 | 0.00 | 0.00 | 0.00 | 56 | 1015.6 |
| 20260906063101 | 79 | 336 | 2.6 | 7.0 | 0.00 | 0.00 | 0.00 | 60 | 1015.5 |
| 20260906062241 | 80 | 35 | 3.5 | 8.7 | 0.00 | 0.00 | 0.00 | 56 | 1015.7 |
| 20260906061636 | 78 | 16 | 2.6 | 6.1 | 0.00 | 0.00 | 0.00 | 63 | 1015.4 |
| 20260906060445 | 77 | 28 | 3.5 | 8.7 | 0.00 | 0.00 | 0.00 | 64 | 1015.3 |
| 20260906060116 | 76 | 323 | 3.5 | 8.7 | 0.00 | 0.00 | 0.00 | 65 | 1015.3 |
| 20260906054946 | 76 | 343 | 1.7 | 9.6 | 0.00 | 0.00 | 0.00 | 68 | 1015.2 |
| 20260906053505 | 74 | 333 | 1.7 | 5.2 | 0.00 | 0.00 | 0.00 | 71 | 1015.0 |
| 20260906052016 | 73 | 352 | 0.0 | 1.7 | 0.00 | 0.00 | 0.00 | 72 | 1014.8 |
| 20260906050451 | 72 | 299 | 0.0 | 0.9 | 0.00 | 0.00 | 0.00 | 71 | 1014.6 |
| 20260906045436 | 73 | 319 | 1.7 | 5.2 | 0.00 | 0.00 | 0.00 | 71 | 1014.5 |
| 20260906045155 | 73 | 311 | 1.7 | 6.1 | 0.00 | 0.00 | 0.00 | 70 | 1014.5 |
| 20260906044028 | 73 | 308 | 3.5 | 6.1 | 0.00 | 0.00 | 0.00 | 70 | 1014.3 |
| 20260906042731 | 73 | 326 | 4.3 | 8.7 | 0.00 | 0.00 | 0.00 | 71 | 1014.3 |
| 20260906042312 | 73 | 337 | 3.5 | 7.8 | 0.00 | 0.00 | 0.00 | 71 | 1014.3 |
| 20260906041501 | 73 | 304 | 2.6 | 7.8 | 0.00 | 0.00 | 0.00 | 71 | 1014.3 |
| 20260906040937 | 73 | 305 | 1.7 | 5.2 | 0.00 | 0.00 | 0.00 | 70 | 1014.3 |
| 20260906035710 | 72 | 308 | 1.7 | 5.2 | 0.00 | 0.00 | 0.00 | 68 | 1014.3 |
| 20260906034245 | 71 | 329 | 0.9 | 3.5 | 0.00 | 0.00 | 0.00 | 66 | 1014.1 |
| 20260906032842 | 70 | 319 | 2.6 | 7.0 | 0.00 | 0.00 | 0.00 | 69 | 1014.0 |
| 20260906032419 | 69 | 340 | 2.6 | 7.0 | 0.00 | 0.00 | 0.00 | 71 | 1014.0 |
| 20260906031907 | 69 | 323 | 1.7 | 5.2 | 0.00 | 0.00 | 0.00 | 73 | 1014.0 |
| 20260906031335 | 68 | 329 | 0.9 | 4.3 | 0.00 | 0.00 | 0.00 | 75 | 1013.8 |
| 20260906030810 | 68 | 0 | 0.0 | 1.7 | 0.00 | 0.00 | 0.00 | 75 | 1013.8 |
| 20260906025909 | 68 | 323 | 0.0 | 1.7 | 0.00 | 0.00 | 0.00 | 77 | 1013.8 |
| 20260906025438 | 68 | 320 | 0.0 | 1.7 | 0.00 | 0.00 | 0.00 | 79 | 1013.8 |
| 20260906024831 | 68 | 318 | 0.0 | 1.7 | 0.00 | 0.00 | 0.00 | 81 | 1013.8 |
| 20260906024503 | 68 | 329 | 0.0 | 1.7 | 0.00 | 0.00 | 0.00 | 82 | 1013.8 |
| 20260906024026 | 69 | 354 | 0.9 | 4.3 | 0.00 | 0.00 | 0.00 | 84 | 1013.8 |
| 20260906023323 | 69 | 343 | 0.9 | 4.3 | 0.00 | 0.00 | 0.00 | 85 | 1013.8 |
| 20260906021708 | 69 | 10 | 1.7 | 5.2 | 0.00 | 0.00 | 0.00 | 88 | 1013.8 |
| 20260906020451 | 69 | 0 | 0.9 | 5.2 | 0.00 | 0.00 | 0.00 | 90 | 1013.8 |
| 20260906015240 | 70 | 17 | 0.9 | 5.2 | 0.00 | 0.00 | 0.00 | 91 | 1013.6 |
| 20260906014916 | 71 | 340 | 0.0 | 0.9 | 0.00 | 0.00 | 0.00 | 93 | 1013.6 |
| 20260906013714 | 71 | 336 | 0.0 | 0.0 | 0.00 | 0.00 | 0.00 | 93 | 1013.6 |
| 20260906013109 | 71 | 333 | 0.0 | 0.0 | 0.00 | 0.00 | 0.00 | 93 | 1013.6 |
| 20260906005649 | 72 | 333 | 0.9 | 0.0 | 0.00 | 0.00 | 0.00 | 94 | 1013.6 |
| 20260906003932 | 76 | 320 | 0.0 | 1.7 | 0.00 | 0.00 | 0.00 | 92 | 1013.7 |
| 20260906003525 | 76 | 295 | 0.0 | 1.7 | 0.00 | 0.00 | 0.00 | 91 | 1013.7 |
| 20260906002735 | 76 | 299 | 0.0 | 1.7 | 0.00 | 0.00 | 0.00 | 91 | 1013.7 |
| 20260906002440 | 76 | 285 | 0.0 | 0.0 | 0.00 | 0.00 | 0.00 | 91 | 1013.8 |
| 20260906001242 | 76 | 285 | 0.0 | 0.0 | 0.00 | 0.00 | 0.00 | 90 | 1013.8 |
| 20260906000925 | 76 | 285 | 0.0 | 0.0 | 0.00 | 0.00 | 0.00 | 89 | 1013.8 |
| 20260906000404 | 76 | 285 | 0.0 | 0.0 | 0.00 | 0.00 | 0.00 | 88 | 1013.8 |
| 20260905235308 | 76 | 285 | 0.0 | 0.0 | 0.00 | 0.00 | 0.00 | 87 | 1013.9 |
| 20260905234606 | 76 | 285 | 0.0 | 0.0 | 0.00 | 0.00 | 0.00 | 86 | 1013.9 |
| 20260905234307 | 76 | 285 | 0.0 | 1.7 | 0.00 | 0.00 | 0.00 | 85 | 1013.9 |
| 20260905233114 | 76 | 285 | 0.0 | 0.0 | 0.00 | 0.00 | 0.00 | 83 | 1013.9 |
| 20260905231840 | 76 | 285 | 0.0 | 0.0 | 0.00 | 0.00 | 0.00 | 81 | 1013.7 |
| 20260905231549 | 77 | 285 | 0.0 | 0.0 | 0.00 | 0.00 | 0.00 | 80 | 1013.7 |
| 20260905230343 | 77 | 285 | 0.0 | 0.0 | 0.00 | 0.00 | 0.00 | 78 | 1013.8 |
| 20260905230049 | 77 | 285 | 0.0 | 0.0 | 0.00 | 0.00 | 0.00 | 78 | 1013.8 |
| 20260905225536 | 77 | 285 | 0.0 | 0.0 | 0.00 | 0.00 | 0.00 | 76 | 1013.8 |
| 20260905224843 | 77 | 282 | 0.0 | 0.0 | 0.00 | 0.00 | 0.00 | 75 | 1013.9 |
| 20260905223421 | 77 | 241 | 0.0 | 0.0 | 0.00 | 0.00 | 0.00 | 71 | 1013.9 |
| 20260905223038 | 77 | 241 | 0.0 | 0.0 | 0.00 | 0.00 | 0.00 | 70 | 1013.9 |
| 20260905222242 | 77 | 241 | 0.0 | 0.0 | 0.00 | 0.00 | 0.00 | 69 | 1013.9 |
| 20260905221954 | 77 | 241 | 0.0 | 0.0 | 0.00 | 0.00 | 0.00 | 68 | 1014.0 |
| 20260905215242 | 77 | 237 | 0.0 | 0.0 | 0.00 | 0.00 | 0.00 | 63 | 1014.0 |
| 20260905214415 | 78 | 237 | 0.0 | 0.0 | 0.00 | 0.00 | 0.00 | 63 | 1014.0 |
| 20260905213817 | 78 | 237 | 0.0 | 0.0 | 0.00 | 0.00 | 0.00 | 62 | 1013.8 |
| 20260905212327 | 77 | 237 | 0.0 | 0.0 | 0.00 | 0.00 | 0.00 | 56 | 1013.8 |
| 20260905211108 | 77 | 237 | 0.0 | 0.0 | 0.00 | 0.00 | 0.00 | 50 | 1013.8 |
| 20260905210741 | 77 | 237 | 0.0 | 0.0 | 0.00 | 0.00 | 0.00 | 48 | 1013.9 |
| 20260905205629 | 77 | 237 | 0.0 | 0.0 | 0.00 | 0.00 | 0.00 | 46 | 1013.9 |
| 20260905203032 | 78 | 241 | 0.0 | 0.9 | 0.00 | 0.00 | 0.00 | 44 | 1013.9 |
| 20260905201409 | 79 | 250 | 0.0 | 1.7 | 0.00 | 0.00 | 0.00 | 43 | 1013.9 |
| 20260905200123 | 79 | 250 | 0.0 | 1.7 | 0.00 | 0.00 | 0.00 | 43 | 1013.9 |
| 20260905195012 | 79 | 244 | 0.0 | 2.6 | 0.00 | 0.00 | 0.00 | 43 | 1013.9 |
| 20260905194618 | 79 | 234 | 0.0 | 2.6 | 0.00 | 0.00 | 0.00 | 44 | 1013.7 |
| 20260905194126 | 80 | 220 | 0.0 | 0.9 | 0.00 | 0.00 | 0.00 | 43 | 1013.7 |
| 20260905193412 | 80 | 220 | 0.0 | 2.6 | 0.00 | 0.00 | 0.00 | 43 | 1013.7 |
| 20260905193116 | 80 | 219 | 0.0 | 2.6 | 0.00 | 0.00 | 0.00 | 43 | 1013.7 |
| 20260905192019 | 80 | 202 | 0.0 | 0.9 | 0.00 | 0.00 | 0.00 | 43 | 1013.4 |
| 20260905191719 | 80 | 226 | 0.0 | 1.7 | 0.00 | 0.00 | 0.00 | 43 | 1013.4 |
| 20260905191229 | 80 | 193 | 0.0 | 1.7 | 0.00 | 0.00 | 0.00 | 43 | 1013.4 |
| 20260905190543 | 80 | 224 | 0.0 | 1.7 | 0.00 | 0.00 | 0.00 | 43 | 1013.4 |
| 20260905190237 | 81 | 220 | 0.0 | 0.9 | 0.00 | 0.00 | 0.00 | 42 | 1013.4 |
| 20260905185645 | 81 | 241 | 0.0 | 0.9 | 0.00 | 0.00 | 0.00 | 42 | 1013.4 |
| 20260905183843 | 81 | 181 | 0.0 | 2.6 | 0.00 | 0.00 | 0.00 | 41 | 1013.3 |
| 20260905182244 | 81 | 240 | 0.0 | 2.6 | 0.00 | 0.00 | 0.00 | 42 | 1013.3 |
| 20260905181814 | 82 | 200 | 0.0 | 2.6 | 0.00 | 0.00 | 0.00 | 42 | 1013.1 |
| 20260905181047 | 82 | 222 | 0.0 | 2.6 | 0.00 | 0.00 | 0.00 | 42 | 1013.1 |
| 20260905180756 | 82 | 220 | 0.0 | 1.7 | 0.00 | 0.00 | 0.00 | 42 | 1013.2 |
| 20260905175612 | 83 | 230 | 0.0 | 1.7 | 0.00 | 0.00 | 0.00 | 41 | 1013.1 |
| 20260905175315 | 83 | 263 | 0.0 | 1.7 | 0.00 | 0.00 | 0.00 | 41 | 1013.1 |
| 20260905174715 | 84 | 205 | 0.0 | 1.7 | 0.00 | 0.00 | 0.00 | 41 | 1013.1 |
| 20260905174045 | 84 | 151 | 0.0 | 1.7 | 0.00 | 0.00 | 0.00 | 41 | 1013.1 |
| 20260905173144 | 85 | 202 | 0.0 | 4.3 | 0.00 | 0.00 | 0.00 | 40 | 1013.0 |
| 20260905172610 | 85 | 191 | 0.0 | 0.9 | 0.00 | 0.00 | 0.00 | 40 | 1013.0 |
| 20260905171646 | 86 | 193 | 0.0 | 6.1 | 0.00 | 0.00 | 0.00 | 40 | 1013.0 |
| 20260905165922 | 87 | 182 | 0.0 | 2.6 | 0.00 | 0.00 | 0.00 | 40 | 1013.1 |
| 20260905164404 | 88 | 234 | 0.9 | 5.2 | 0.00 | 0.00 | 0.00 | 40 | 1013.1 |
| 20260905163128 | 89 | 233 | 0.0 | 4.3 | 0.00 | 0.00 | 0.00 | 37 | 1013.0 |
| 20260905162747 | 89 | 229 | 0.9 | 4.3 | 0.00 | 0.00 | 0.00 | 37 | 1013.0 |
| 20260905161933 | 89 | 184 | 0.9 | 5.2 | 0.00 | 0.00 | 0.00 | 36 | 1013.0 |
| 20260905161011 | 89 | 134 | 0.0 | 5.2 | 0.00 | 0.00 | 0.00 | 36 | 1013.1 |
| 20260905154831 | 89 | 186 | 0.0 | 5.2 | 0.00 | 0.00 | 0.00 | 39 | 1013.1 |
| 20260905153641 | 88 | 138 | 0.9 | 5.2 | 0.00 | 0.00 | 0.00 | 41 | 1013.1 |
| 20260905153316 | 88 | 157 | 0.9 | 5.2 | 0.00 | 0.00 | 0.00 | 41 | 1013.1 |
| 20260905151703 | 88 | 136 | 0.9 | 7.0 | 0.00 | 0.00 | 0.00 | 47 | 1013.3 |
| 20260905151021 | 87 | 133 | 1.7 | 5.2 | 0.00 | 0.00 | 0.00 | 47 | 1013.5 |
| 20260905150535 | 87 | 106 | 1.7 | 5.2 | 0.00 | 0.00 | 0.00 | 46 | 1013.5 |
| 20260905144508 | 87 | 152 | 2.6 | 5.2 | 0.00 | 0.00 | 0.00 | 49 | 1013.5 |
| 20260905143906 | 86 | 112 | 3.5 | 6.1 | 0.00 | 0.00 | 0.00 | 49 | 1013.7 |
| 20260905142407 | 85 | 107 | 3.5 | 5.2 | 0.00 | 0.00 | 0.00 | 62 | 1013.8 |
| 20260905140925 | 87 | 143 | 0.9 | 4.3 | 0.00 | 0.00 | 0.00 | 54 | 1014.0 |
| 20260905135435 | 87 | 147 | 0.9 | 2.6 | 0.00 | 0.00 | 0.00 | 54 | 1014.2 |
| 20260905134347 | 87 | 124 | 1.7 | 4.3 | 0.00 | 0.00 | 0.00 | 53 | 1014.2 |
| 20260905133951 | 87 | 137 | 0.9 | 4.3 | 0.00 | 0.00 | 0.00 | 53 | 1014.3 |
| 20260905133443 | 88 | 164 | 0.0 | 2.6 | 0.00 | 0.00 | 0.00 | 54 | 1014.3 |
| 20260905131429 | 87 | 181 | 0.0 | 3.5 | 0.00 | 0.00 | 0.00 | 55 | 1014.4 |
| 20260905131025 | 86 | 140 | 0.9 | 3.5 | 0.00 | 0.00 | 0.00 | 56 | 1014.7 |
| 20260905130541 | 86 | 138 | 0.9 | 4.3 | 0.00 | 0.00 | 0.00 | 54 | 1014.7 |
| 20260905130007 | 85 | 124 | 1.7 | 4.3 | 0.00 | 0.00 | 0.00 | 54 | 1014.7 |
| 20260905124518 | 86 | 148 | 1.7 | 4.3 | 0.00 | 0.00 | 0.00 | 55 | 1014.9 |
| 20260905124000 | 86 | 136 | 1.7 | 4.3 | 0.00 | 0.00 | 0.00 | 56 | 1015.0 |
| 20260905123333 | 86 | 171 | 0.9 | 4.3 | 0.00 | 0.00 | 0.00 | 55 | 1015.0 |
| 20260905121850 | 85 | 73 | 0.9 | 2.6 | 0.00 | 0.00 | 0.00 | 58 | 1015.1 |
| 20260905121414 | 85 | 123 | 1.7 | 4.3 | 0.00 | 0.00 | 0.00 | 59 | 1015.1 |
| 20260905120356 | 85 | 114 | 1.7 | 6.1 | 0.00 | 0.00 | 0.00 | 58 | 1015.2 |
| 20260905114941 | 85 | 99 | 1.7 | 4.3 | 0.00 | 0.00 | 0.00 | 58 | 1015.3 |
| 20260905113821 | 85 | 119 | 0.9 | 3.5 | 0.00 | 0.00 | 0.00 | 59 | 1015.4 |
| 20260905112346 | 85 | 110 | 0.9 | 2.6 | 0.00 | 0.00 | 0.00 | 61 | 1015.5 |
| 20260905111507 | 85 | 75 | 0.0 | 2.6 | 0.00 | 0.00 | 0.00 | 59 | 1015.5 |
| 20260905110921 | 84 | 124 | 0.0 | 1.7 | 0.00 | 0.00 | 0.00 | 59 | 1015.7 |
| 20260905110116 | 85 | 85 | 0.0 | 4.3 | 0.00 | 0.00 | 0.00 | 58 | 1015.7 |
| 20260905104620 | 85 | 92 | 0.0 | 2.6 | 0.00 | 0.00 | 0.00 | 61 | 1015.9 |
| 20260905103711 | 84 | 54 | 0.0 | 2.6 | 0.00 | 0.00 | 0.00 | 60 | 1016.1 |
| 20260905102641 | 85 | 59 | 0.0 | 0.9 | 0.00 | 0.00 | 0.00 | 58 | 1016.1 |
| 20260905102326 | 84 | 79 | 0.0 | 1.7 | 0.00 | 0.00 | 0.00 | 59 | 1016.1 |
| 20260905101242 | 83 | 102 | 0.9 | 4.3 | 0.00 | 0.00 | 0.00 | 60 | 1016.3 |
| 20260905100219 | 83 | 71 | 1.7 | 4.3 | 0.00 | 0.00 | 0.00 | 60 | 1016.2 |
| 20260905095736 | 83 | 88 | 0.9 | 4.3 | 0.00 | 0.00 | 0.00 | 59 | 1016.4 |
| 20260905094535 | 83 | 56 | 0.9 | 4.3 | 0.00 | 0.00 | 0.00 | 59 | 1016.4 |
| 20260905094213 | 83 | 28 | 0.9 | 4.3 | 0.00 | 0.00 | 0.00 | 59 | 1016.4 |
| 20260905092929 | 82 | 28 | 1.7 | 5.2 | 0.00 | 0.00 | 0.00 | 58 | 1016.4 |
| 20260905091755 | 83 | 34 | 0.9 | 5.2 | 0.00 | 0.00 | 0.00 | 55 | 1016.5 |
| 20260905090909 | 82 | 41 | 2.6 | 7.0 | 0.00 | 0.00 | 0.00 | 56 | 1016.4 |
| 20260905085804 | 82 | 0 | 3.5 | 7.0 | 0.00 | 0.00 | 0.00 | 56 | 1016.4 |
| 20260905084730 | 81 | 23 | 2.6 | 7.0 | 0.00 | 0.00 | 0.00 | 52 | 1016.4 |
| 20260905083638 | 81 | 16 | 4.3 | 7.0 | 0.00 | 0.00 | 0.00 | 53 | 1016.4 |
| 20260905082135 | 80 | 326 | 4.3 | 7.0 | 0.00 | 0.00 | 0.00 | 52 | 1016.4 |
| 20260905081643 | 80 | 21 | 4.3 | 7.0 | 0.00 | 0.00 | 0.00 | 52 | 1016.4 |
| 20260905080557 | 80 | 0 | 3.5 | 7.0 | 0.00 | 0.00 | 0.00 | 53 | 1016.4 |
| 20260905080123 | 79 | 38 | 4.3 | 7.0 | 0.00 | 0.00 | 0.00 | 54 | 1016.4 |
| 20260905075118 | 79 | 40 | 5.2 | 9.6 | 0.00 | 0.00 | 0.00 | 56 | 1016.3 |
| 20260905074624 | 79 | 350 | 5.2 | 9.6 | 0.00 | 0.00 | 0.00 | 56 | 1016.3 |